Tracking 28902 objects as of 19-May-2024
HD Live streaming from Space Station
objects crossing your sky now

STARLINK-1781

Track STARLINK-1781 now!
10-day predictions
STARLINK-1781 is classified as:


NORAD ID: 46685
Int'l Code: 2020-073R
Perigee: 553.6 km
Apogee: 555.3 km
Inclination: 53.1 °
Period: 95.6 minutes
Semi major axis: 6925 km
RCS: Unknown
Launch date: October 18, 2020
Source: United States (US)
Launch site: AIR FORCE EASTERN TEST RANGE (AFETR)
Your satellite tracking list
Your tracking list is empty




NASA's NSSDC Master Catalog

Two Line Element Set (TLE):
1 46685U 20073R   24139.96332308  .00025057  00000-0  16961-2 0  9998
2 46685  53.0555 338.5121 0001242  90.1017 270.0114 15.06377673197472
Source of the keplerian elements: AFSPC